QPF
0.01 0.01 0.00 0.00 0.00 0.01 0.01 0.02 0.02 0.02 0.02 0.02 0.01 0.01 0.00 0.00 0.00 0.01 0.02 0.02 0.01 0.02 0.02 0.02 0.02 0.02 0.02 0.02 0.02 0.02 0.01 0.01 0.00 0.00 0.00 0.00 0.00 0.01 0.01 0.01 0.01 0.00 0.01
0.01 0.01 0.01 0.01 0.00 0.01 0.01 0.01 0.02 0.02 0.02 0.02 0.02 0.01 0.01 0.00 0.00 0.01 0.01 0.02 0.01 0.01 0.02 0.02 0.02 0.02 0.02 0.02 0.02 0.02 0.02 0.01 0.01 0.01 0.00 0.00 0.00 0.00 0.01 0.01 0.00 0.00 0.01
0.01 0.01 0.00 0.00 0.00 0.01 0.01 0.02 0.02 0.03 0.02 0.02 0.02 0.01 0.01 0.01 0.00 0.01 0.01 0.01 0.01 0.01 0.01 0.02 0.02 0.02 0.02 0.02 0.02 0.02 0.02 0.02 0.01 0.01 0.00 0.00 0.00 0.00 0.00 0.01 0.00 0.01 0.01
0.02 0.01 0.01 0.00 0.00 0.01 0.01 0.01 0.02 0.03 0.03 0.02 0.03 0.02 0.02 0.01 0.01 0.01 0.01 0.01 0.01 0.01 0.01 0.01 0.02 0.02 0.01 0.02 0.02 0.02 0.02 0.02 0.02 0.01 0.01 0.00 0.00 0.00 0.00 0.00 0.01 0.01 0.01
0.04 0.02 0.01 0.00 0.00 0.00 0.01 0.01 0.02 0.02 0.02 0.02 0.03 0.03 0.03 0.02 0.01 0.01 0.01 0.02 0.01 0.01 0.01 0.01 0.02 0.02 0.02 0.02 0.02 0.02 0.02 0.02 0.02 0.02 0.01 0.01 0.01 0.01 0.01 0.01 0.01 0.01 0.01
0.04 0.03 0.02 0.01 0.00 0.00 0.01 0.01 0.02 0.02 0.03 0.03 0.03 0.04 0.04 0.03 0.02 0.01 0.01 0.02 0.02 0.02 0.02 0.01 0.02 0.03 0.03 0.04 0.04 0.03 0.02 0.02 0.02 0.02 0.02 0.01 0.01 0.01 0.01 0.01 0.01 0.01 0.01
0.02 0.02 0.02 0.01 0.00 0.00 0.01 0.01 0.01 0.02 0.02 0.03 0.03 0.04 0.04 0.04 0.03 0.02 0.01 0.01 0.01 0.01 0.02 0.02 0.03 0.03 0.04 0.04 0.05 0.04 0.02 0.02 0.02 0.02 0.03 0.02 0.02 0.01 0.01 0.01 0.01 0.01 0.01
0.01 0.01 0.01 0.01 0.01 0.01 0.01 0.01 0.01 0.01 0.02 0.02 0.03 0.04 0.05 0.06 0.04 0.03 0.02 0.01 0.01 0.01 0.01 0.02 0.02 0.03 0.03 0.04 0.04 0.04 0.02 0.02 0.01 0.02 0.02 0.02 0.02 0.02 0.02 0.01 0.01 0.01 0.01
0.01 0.01 0.01 0.01 0.01 0.01 0.01 0.01 0.01 0.01 0.02 0.02 0.02 0.04 0.05 0.05 0.05 0.04 0.03 0.02 0.02 0.02 0.02 0.02 0.03 0.03 0.02 0.02 0.02 0.02 0.02 0.01 0.01 0.01 0.01 0.02 0.03 0.03 0.02 0.02 0.02 0.01 0.01
0.01 0.01 0.01 0.01 0.01 0.01 0.01 0.01 0.01 0.01 0.01 0.03 0.03 0.04 0.04 0.04 0.04 0.05 0.05 0.04 0.03 0.03 0.03 0.03 0.03 0.03 0.03 0.02 0.02 0.02 0.02 0.01 0.01 0.01 0.01 0.01 0.02 0.03 0.03 0.03 0.02 0.02 0.02
0.01 0.01 0.01 0.01 0.01 0.01 0.00 0.00 0.00 0.00 0.01 0.02 0.04 0.05 0.05 0.05 0.05 0.05 0.06 0.05 0.05 0.04 0.04 0.04 0.04 0.03 0.03 0.02 0.02 0.01 0.01 0.01 0.01 0.01 0.01 0.01 0.01 0.02 0.03 0.03 0.03 0.03 0.02
0.01 0.01 0.01 0.01 0.01 0.00 0.00 0.00 0.00 0.00 0.00 0.01 0.03 0.06 0.07 0.06 0.06 0.06 0.06 0.05 0.06 0.06 0.05 0.04 0.04 0.03 0.03 0.02 0.02 0.02 0.01 0.01 0.01 0.01 0.01 0.01 0.01 0.01 0.02 0.02 0.03 0.03 0.03
0.01 0.00 0.01 0.01 0.00 0.00 0.00 0.00 0.00 0.00 0.00 0.01 0.02 0.03 0.05 0.05 0.05 0.06 0.06 0.07 0.07 0.07 0.06 0.06 0.05 0.03 0.03 0.02 0.02 0.02 0.01 0.01 0.01 0.01 0.01 0.01 0.01 0.01 0.01 0.02 0.02 0.02 0.03
0.01 0.01 0.00 0.01 0.00 0.00 0.00 0.00 0.00 0.00 0.01 0.01 0.02 0.02 0.03 0.03 0.03 0.04 0.04 0.05 0.06 0.07 0.07 0.06 0.05 0.04 0.03 0.02 0.02 0.01 0.01 0.01 0.01 0.00 0.00 0.00 0.00 0.01 0.01 0.01 0.02 0.02 0.02
0.01 0.01 0.00 0.01 0.01 0.01 0.00 0.00 0.01 0.01 0.01 0.01 0.02 0.01 0.02 0.02 0.02 0.02 0.02 0.03 0.04 0.06 0.06 0.05 0.04 0.03 0.04 0.05 0.04 0.02 0.01 0.01 0.01 0.01 0.00 0.00 0.00 0.00 0.01 0.01 0.02 0.02 0.02
0.01 0.01 0.01 0.01 0.01 0.01 0.01 0.01 0.01 0.01 0.01 0.01 0.01 0.01 0.02 0.02 0.02 0.02 0.03 0.03 0.03 0.03 0.04 0.04 0.04 0.03 0.03 0.04 0.04 0.04 0.03 0.03 0.02 0.01 0.01 0.00 0.00 0.00 0.01 0.02 0.02 0.02 0.02
0.01 0.01 0.01 0.01 0.01 0.01 0.01 0.01 0.01 0.01 0.01 0.01 0.01 0.02 0.02 0.02 0.02 0.02 0.03 0.03 0.03 0.03 0.03 0.04 0.05 0.04 0.04 0.03 0.03 0.03 0.03 0.03 0.02 0.02 0.01 0.00 0.00 0.00 0.00 0.01 0.02 0.02 0.02
0.02 0.02 0.02 0.02 0.02 0.01 0.01 0.01 0.01 0.01 0.02 0.02 0.02 0.02 0.02 0.02 0.03 0.03 0.02 0.02 0.03 0.03 0.04 0.04 0.05 0.05 0.04 0.03 0.02 0.02 0.02 0.02 0.02 0.01 0.00 0.00 0.00 0.00 0.00 0.00 0.01 0.01 0.02
0.02 0.02 0.03 0.02 0.02 0.01 0.01 0.01 0.02 0.02 0.02 0.03 0.03 0.02 0.02 0.02 0.02 0.03 0.03 0.02 0.02 0.03 0.04 0.03 0.03 0.04 0.03 0.03 0.02 0.02 0.02 0.01 0.01 0.00 0.00 0.00 0.00 0.00 0.00 0.00 0.01 0.01 0.01
0.03 0.03 0.03 0.04 0.03 0.02 0.02 0.02 0.02 0.02 0.02 0.03 0.04 0.04 0.03 0.04 0.04 0.05 0.05 0.04 0.03 0.03 0.04 0.03 0.03 0.03 0.03 0.02 0.02 0.02 0.01 0.01 0.00 0.00 0.00 0.00 0.00 0.00 0.00 0.00 0.00 0.00 0.01
0.04 0.04 0.04 0.04 0.04 0.03 0.02 0.02 0.02 0.02 0.03 0.03 0.04 0.04 0.04 0.04 0.04 0.05 0.06 0.06 0.05 0.04 0.05 0.05 0.04 0.03 0.03 0.03 0.02 0.01 0.01 0.01 0.01 0.01 0.01 0.01 0.00 0.00 0.00 0.00 0.01 0.01 0.01
0.05 0.05 0.05 0.04 0.04 0.04 0.03 0.02 0.02 0.02 0.02 0.02 0.04 0.04 0.04 0.04 0.04 0.05 0.06 0.07 0.06 0.06 0.06 0.05 0.04 0.03 0.02 0.02 0.02 0.02 0.02 0.02 0.02 0.02 0.02 0.02 0.01 0.01 0.01 0.01 0.01 0.02 0.02
0.04 0.04 0.05 0.04 0.03 0.03 0.04 0.03 0.02 0.02 0.02 0.02 0.03 0.03 0.03 0.03 0.03 0.03 0.04 0.04 0.04 0.05 0.05 0.05 0.04 0.03 0.02 0.01 0.02 0.02 0.02 0.02 0.03 0.04 0.05 0.04 0.03 0.02 0.02 0.02 0.02 0.02 0.02
0.03 0.03 0.04 0.04 0.03 0.03 0.03 0.02 0.02 0.02 0.02 0.02 0.02 0.03 0.03 0.02 0.02 0.03 0.03 0.03 0.03 0.03 0.03 0.03 0.02 0.02 0.02 0.02 0.02 0.02 0.02 0.03 0.03 0.04 0.05 0.05 0.04 0.03 0.03 0.03 0.03 0.02 0.02
0.03 0.03 0.03 0.03 0.03 0.02 0.02 0.02 0.02 0.01 0.02 0.02 0.01 0.02 0.02 0.02 0.01 0.02 0.02 0.03 0.03 0.03 0.02 0.02 0.02 0.02 0.02 0.02 0.02 0.03 0.03 0.04 0.04 0.04 0.04 0.05 0.05 0.04 0.03 0.03 0.04 0.04 0.03
0.02 0.02 0.02 0.02 0.03 0.02 0.02 0.02 0.01 0.01 0.01 0.01 0.01 0.01 0.02 0.02 0.02 0.02 0.02 0.02 0.03 0.02 0.02 0.02 0.02 0.02 0.02 0.02 0.03 0.03 0.04 0.05 0.05 0.04 0.04 0.04 0.04 0.04 0.04 0.03 0.03 0.03 0.03
MSLP
1017.50 1017.80 1018.10 1018.41 1018.76 1019.17 1019.61 1020.08 1020.55 1021.01 1021.43 1021.80 1022.12 1022.38 1022.61 1022.82 1023.01 1023.20 1023.38 1023.56 1023.71 1023.85 1023.95 1024.02 1024.07 1024.11 1024.14 1024.17 1024.20 1024.24 1024.27 1024.29 1024.27 1024.22 1024.13 1024.00 1023.83 1023.63 1023.40 1023.14 1022.85 1022.53 1022.18
1017.51 1017.84 1018.17 1018.52 1018.91 1019.35 1019.83 1020.34 1020.85 1021.35 1021.82 1022.23 1022.59 1022.90 1023.16 1023.38 1023.57 1023.74 1023.90 1024.03 1024.15 1024.24 1024.32 1024.37 1024.41 1024.45 1024.50 1024.55 1024.62 1024.69 1024.76 1024.81 1024.83 1024.81 1024.75 1024.63 1024.47 1024.26 1024.01 1023.73 1023.42 1023.08 1022.71
1017.60 1017.96 1018.32 1018.71 1019.13 1019.60 1020.10 1020.63 1021.17 1021.71 1022.22 1022.68 1023.09 1023.44 1023.74 1023.99 1024.19 1024.35 1024.49 1024.59 1024.67 1024.73 1024.77 1024.80 1024.82 1024.86 1024.90 1024.96 1025.03 1025.12 1025.20 1025.27 1025.31 1025.32 1025.27 1025.17 1025.02 1024.81 1024.56 1024.27 1023.94 1023.60 1023.23
1017.75 1018.14 1018.54 1018.96 1019.40 1019.87 1020.38 1020.92 1021.47 1022.03 1022.57 1023.08 1023.54 1023.95 1024.29 1024.58 1024.80 1024.98 1025.11 1025.20 1025.26 1025.30 1025.31 1025.32 1025.32 1025.32 1025.34 1025.38 1025.44 1025.51 1025.58 1025.65 1025.70 1025.71 1025.68 1025.60 1025.46 1025.27 1025.03 1024.74 1024.43 1024.09 1023.74
1017.93 1018.36 1018.78 1019.21 1019.66 1020.12 1020.62 1021.14 1021.70 1022.26 1022.82 1023.36 1023.87 1024.33 1024.73 1025.06 1025.33 1025.54 1025.69 1025.80 1025.86 1025.89 1025.90 1025.89 1025.86 1025.84 1025.83 1025.83 1025.85 1025.87 1025.91 1025.95 1025.98 1025.99 1025.97 1025.91 1025.80 1025.64 1025.43 1025.18 1024.89 1024.58 1024.25
1018.08 1018.54 1018.99 1019.43 1019.86 1020.31 1020.78 1021.27 1021.79 1022.34 1022.91 1023.47 1024.01 1024.52 1024.97 1025.37 1025.69 1025.95 1026.15 1026.29 1026.38 1026.44 1026.46 1026.45 1026.42 1026.38 1026.34 1026.29 1026.25 1026.22 1026.21 1026.21 1026.21 1026.21 1026.20 1026.16 1026.08 1025.96 1025.80 1025.59 1025.34 1025.07 1024.79
1018.15 1018.64 1019.11 1019.55 1019.97 1020.39 1020.82 1021.27 1021.76 1022.28 1022.82 1023.39 1023.95 1024.49 1024.99 1025.43 1025.82 1026.14 1026.39 1026.59 1026.74 1026.85 1026.91 1026.94 1026.93 1026.89 1026.82 1026.74 1026.66 1026.57 1026.51 1026.46 1026.43 1026.42 1026.41 1026.39 1026.36 1026.29 1026.18 1026.03 1025.83 1025.61 1025.37
1018.08 1018.61 1019.10 1019.55 1019.97 1020.36 1020.76 1021.16 1021.60 1022.08 1022.60 1023.14 1023.70 1024.25 1024.78 1025.26 1025.68 1026.06 1026.38 1026.65 1026.87 1027.05 1027.19 1027.28 1027.32 1027.31 1027.26 1027.17 1027.06 1026.94 1026.83 1026.74 1026.69 1026.66 1026.66 1026.67 1026.67 1026.65 1026.60 1026.51 1026.37 1026.20 1026.00
1017.86 1018.42 1018.94 1019.42 1019.84 1020.23 1020.61 1020.98 1021.38 1021.82 1022.29 1022.80 1023.33 1023.87 1024.38 1024.87 1025.32 1025.73 1026.10 1026.43 1026.74 1027.01 1027.24 1027.42 1027.55 1027.61 1027.61 1027.54 1027.44 1027.31 1027.19 1027.08 1027.01 1026.97 1026.98 1027.01 1027.05 1027.07 1027.07 1027.03 1026.94 1026.82 1026.65
1017.50 1018.10 1018.67 1019.18 1019.63 1020.04 1020.41 1020.78 1021.15 1021.54 1021.98 1022.44 1022.93 1023.42 1023.90 1024.36 1024.80 1025.21 1025.61 1025.99 1026.36 1026.72 1027.05 1027.35 1027.58 1027.74 1027.83 1027.83 1027.78 1027.68 1027.56 1027.46 1027.38 1027.35 1027.36 1027.40 1027.46 1027.52 1027.56 1027.56 1027.51 1027.42 1027.29
1017.05 1017.69 1018.30 1018.87 1019.37 1019.81 1020.21 1020.58 1020.94 1021.31 1021.71 1022.13 1022.55 1022.99 1023.41 1023.82 1024.21 1024.60 1024.99 1025.39 1025.81 1026.24 1026.67 1027.08 1027.43 1027.71 1027.91 1028.01 1028.04 1027.99 1027.92 1027.83 1027.77 1027.74 1027.75 1027.81 1027.88 1027.96 1028.02 1028.04 1028.02 1027.96 1027.85
1016.53 1017.22 1017.89 1018.51 1019.07 1019.56 1020.00 1020.39 1020.76 1021.13 1021.50 1021.88 1022.26 1022.62 1022.98 1023.32 1023.65 1023.98 1024.34 1024.74 1025.18 1025.65 1026.15 1026.66 1027.13 1027.53 1027.85 1028.06 1028.18 1028.22 1028.20 1028.16 1028.11 1028.10 1028.11 1028.16 1028.23 1028.32 1028.38 1028.42 1028.42 1028.38 1028.29
1016.02 1016.74 1017.46 1018.13 1018.74 1019.29 1019.77 1020.20 1020.60 1020.97 1021.34 1021.69 1022.03 1022.35 1022.64 1022.91 1023.17 1023.45 1023.75 1024.11 1024.54 1025.03 1025.58 1026.15 1026.71 1027.22 1027.65 1027.98 1028.20 1028.32 1028.37 1028.38 1028.36 1028.35 1028.37 1028.41 1028.48 1028.55 1028.62 1028.66 1028.67 1028.64 1028.58
1015.52 1016.27 1017.02 1017.72 1018.38 1018.96 1019.49 1019.96 1020.39 1020.79 1021.17 1021.52 1021.85 1022.14 1022.39 1022.62 1022.82 1023.03 1023.28 1023.59 1023.99 1024.47 1025.02 1025.63 1026.24 1026.83 1027.35 1027.77 1028.08 1028.29 1028.41 1028.46 1028.47 1028.48 1028.50 1028.53 1028.59 1028.65 1028.70 1028.75 1028.77 1028.76 1028.72
1015.08 1015.82 1016.57 1017.29 1017.96 1018.57 1019.12 1019.62 1020.08 1020.52 1020.93 1021.31 1021.66 1021.96 1022.20 1022.41 1022.58 1022.75 1022.95 1023.21 1023.56 1024.00 1024.54 1025.14 1025.78 1026.40 1026.98 1027.47 1027.85 1028.13 1028.30 1028.40 1028.45 1028.47 1028.49 1028.52 1028.56 1028.61 1028.66 1028.70 1028.73 1028.74 1028.73
1014.67 1015.40 1016.13 1016.83 1017.49 1018.09 1018.65 1019.17 1019.66 1020.13 1020.59 1021.02 1021.41 1021.74 1022.02 1022.25 1022.42 1022.58 1022.75 1022.97 1023.27 1023.66 1024.16 1024.73 1025.35 1025.98 1026.58 1027.10 1027.53 1027.85 1028.08 1028.22 1028.29 1028.33 1028.36 1028.39 1028.42 1028.47 1028.52 1028.56 1028.60 1028.63 1028.65
1014.31 1015.01 1015.69 1016.35 1016.97 1017.54 1018.09 1018.60 1019.11 1019.62 1020.12 1020.61 1021.06 1021.47 1021.81 1022.08 1022.30 1022.47 1022.64 1022.84 1023.10 1023.44 1023.88 1024.41 1024.99 1025.59 1026.17 1026.70 1027.15 1027.51 1027.76 1027.94 1028.04 1028.10 1028.15 1028.18 1028.22 1028.27 1028.32 1028.38 1028.43 1028.47 1028.51
1013.98 1014.63 1015.27 1015.87 1016.44 1016.97 1017.48 1017.98 1018.49 1019.02 1019.56 1020.10 1020.63 1021.11 1021.53 1021.88 1022.15 1022.37 1022.56 1022.75 1022.99 1023.29 1023.68 1024.14 1024.67 1025.23 1025.78 1026.30 1026.75 1027.12 1027.40 1027.60 1027.73 1027.82 1027.88 1027.93 1027.98 1028.04 1028.10 1028.17 1028.23 1028.30 1028.36
1013.67 1014.28 1014.87 1015.42 1015.94 1016.42 1016.89 1017.36 1017.85 1018.38 1018.95 1019.54 1020.12 1020.68 1021.18 1021.60 1021.94 1022.22 1022.44 1022.65 1022.88 1023.15 1023.50 1023.91 1024.38 1024.89 1025.41 1025.90 1026.34 1026.71 1027.01 1027.23 1027.39 1027.50 1027.59 1027.66 1027.73 1027.80 1027.87 1027.95 1028.03 1028.11 1028.19
1013.37 1013.96 1014.51 1015.03 1015.49 1015.93 1016.35 1016.78 1017.25 1017.77 1018.34 1018.95 1019.57 1020.18 1020.73 1021.22 1021.63 1021.96 1022.23 1022.47 1022.71 1022.97 1023.29 1023.66 1024.09 1024.56 1025.04 1025.50 1025.93 1026.30 1026.60 1026.84 1027.02 1027.16 1027.27 1027.37 1027.45 1027.54 1027.63 1027.72 1027.82 1027.91 1028.00
1013.07 1013.65 1014.19 1014.68 1015.12 1015.52 1015.90 1016.30 1016.73 1017.22 1017.77 1018.37 1019.00 1019.62 1020.22 1020.75 1021.21 1021.59 1021.90 1022.17 1022.43 1022.70 1023.01 1023.36 1023.77 1024.20 1024.65 1025.10 1025.51 1025.88 1026.19 1026.44 1026.64 1026.80 1026.94 1027.05 1027.15 1027.26 1027.36 1027.47 1027.57 1027.67 1027.77
1012.76 1013.35 1013.89 1014.37 1014.79 1015.17 1015.53 1015.89 1016.28 1016.73 1017.24 1017.81 1018.42 1019.03 1019.63 1020.18 1020.67 1021.09 1021.44 1021.75 1022.04 1022.33 1022.65 1023.00 1023.40 1023.82 1024.26 1024.69 1025.09 1025.46 1025.77 1026.04 1026.25 1026.43 1026.58 1026.71 1026.83 1026.95 1027.07 1027.18 1027.30 1027.41 1027.52
1012.42 1013.02 1013.57 1014.06 1014.48 1014.85 1015.19 1015.53 1015.88 1016.29 1016.75 1017.27 1017.84 1018.42 1019.00 1019.55 1020.05 1020.49 1020.87 1021.22 1021.55 1021.87 1022.22 1022.59 1022.99 1023.42 1023.85 1024.28 1024.68 1025.05 1025.37 1025.64 1025.87 1026.06 1026.22 1026.37 1026.50 1026.63 1026.76 1026.88 1027.01 1027.13 1027.25
1012.05 1012.65 1013.21 1013.71 1014.14 1014.50 1014.83 1015.15 1015.48 1015.84 1016.26 1016.73 1017.25 1017.79 1018.34 1018.88 1019.38 1019.83 1020.25 1020.63 1021.00 1021.37 1021.75 1022.15 1022.57 1023.01 1023.46 1023.89 1024.30 1024.67 1024.99 1025.27 1025.51 1025.72 1025.89 1026.05 1026.20 1026.34 1026.47 1026.60 1026.73 1026.86 1026.99
1011.63 1012.22 1012.78 1013.27 1013.71 1014.08 1014.40 1014.71 1015.02 1015.37 1015.75 1016.19 1016.67 1017.18 1017.70 1018.22 1018.72 1019.19 1019.63 1020.05 1020.46 1020.87 1021.29 1021.73 1022.18 1022.64 1023.10 1023.54 1023.96 1024.34 1024.68 1024.97 1025.22 1025.44 1025.63 1025.80 1025.96 1026.11 1026.25 1026.38 1026.52 1026.65 1026.78
1011.19 1011.75 1012.28 1012.76 1013.18 1013.55 1013.88 1014.19 1014.50 1014.84 1015.22 1015.64 1016.10 1016.60 1017.11 1017.62 1018.12 1018.61 1019.08 1019.53 1019.98 1020.43 1020.90 1021.37 1021.85 1022.33 1022.81 1023.27 1023.70 1024.09 1024.44 1024.75 1025.02 1025.25 1025.46 1025.65 1025.82 1025.98 1026.12 1026.26 1026.38 1026.51 1026.63
Thickness
5649 5649 5650 5649 5650 5651 5651 5652 5653 5652 5653 5653 5653 5653 5653 5653 5652 5652 5650 5649 5649 5649 5649 5648 5647 5647 5647 5646 5645 5644 5644 5643 5643 5642 5641 5641 5641 5640 5640 5639 5639 5639 5639
5642 5642 5642 5642 5643 5643 5644 5645 5646 5645 5645 5645 5645 5645 5644 5644 5644 5644 5643 5642 5641 5641 5641 5640 5640 5640 5639 5639 5638 5637 5637 5636 5635 5635 5634 5634 5634 5633 5633 5633 5632 5632 5632
5634 5634 5635 5635 5635 5635 5636 5637 5637 5637 5637 5636 5636 5636 5636 5636 5635 5636 5635 5635 5634 5633 5633 5632 5632 5632 5631 5631 5631 5630 5629 5628 5628 5627 5627 5626 5626 5626 5626 5626 5625 5625 5625
5625 5626 5627 5627 5627 5627 5627 5628 5629 5629 5628 5628 5628 5627 5626 5626 5626 5626 5627 5626 5626 5625 5625 5624 5623 5623 5623 5623 5623 5623 5622 5621 5620 5620 5619 5619 5619 5618 5619 5618 5618 5618 5618
5617 5619 5619 5619 5619 5619 5619 5619 5620 5620 5619 5618 5617 5617 5616 5616 5616 5617 5618 5617 5617 5616 5616 5616 5615 5615 5615 5615 5615 5615 5614 5613 5612 5612 5611 5611 5611 5611 5611 5611 5611 5610 5610
5609 5610 5611 5610 5610 5610 5610 5610 5610 5610 5610 5608 5607 5606 5606 5606 5606 5607 5608 5608 5608 5607 5608 5608 5607 5606 5606 5606 5606 5607 5606 5605 5604 5604 5604 5603 5603 5603 5603 5603 5603 5603 5603
5601 5602 5602 5602 5602 5602 5602 5602 5600 5600 5599 5598 5598 5596 5596 5596 5596 5597 5598 5599 5599 5598 5598 5598 5599 5598 5598 5597 5597 5597 5597 5597 5596 5596 5595 5595 5595 5595 5595 5595 5595 5595 5594
5593 5594 5594 5594 5594 5593 5593 5592 5591 5590 5589 5588 5590 5590 5589 5588 5587 5587 5588 5588 5589 5588 5589 5589 5589 5589 5589 5589 5588 5587 5588 5587 5587 5587 5586 5586 5586 5586 5586 5586 5586 5585 5585
5585 5585 5586 5586 5585 5585 5584 5583 5582 5582 5581 5579 5580 5583 5584 5586 5582 5579 5579 5579 5579 5579 5579 5579 5579 5579 5579 5579 5578 5577 5577 5577 5577 5577 5577 5577 5577 5577 5577 5577 5576 5576 5575
5577 5577 5577 5577 5576 5575 5574 5574 5573 5573 5572 5571 5569 5570 5572 5575 5575 5573 5571 5570 5569 5569 5569 5569 5569 5569 5569 5569 5568 5567 5567 5567 5567 5567 5568 5568 5567 5567 5567 5566 5566 5565 5565
5568 5568 5568 5568 5567 5566 5566 5564 5563 5563 5563 5563 5562 5561 5560 5561 5564 5566 5565 5562 5561 5560 5559 5559 5559 5559 5559 5559 5558 5557 5557 5557 5556 5556 5557 5557 5557 5556 5556 5556 5555 5554 5554
5560 5560 5560 5559 5558 5558 5557 5556 5555 5554 5553 5552 5553 5553 5553 5554 5555 5556 5556 5555 5554 5552 5550 5550 5550 5549 5548 5548 5547 5546 5546 5546 5546 5545 5546 5546 5545 5545 5544 5544 5543 5542 5541
5553 5553 5552 5551 5551 5550 5549 5548 5546 5545 5543 5543 5543 5543 5543 5544 5544 5545 5545 5544 5544 5543 5541 5541 5540 5539 5538 5537 5537 5536 5535 5535 5534 5534 5534 5534 5533 5533 5532 5531 5530 5529 5528
5547 5546 5545 5544 5543 5541 5540 5539 5538 5536 5534 5534 5533 5533 5532 5532 5532 5533 5533 5533 5533 5533 5533 5533 5530 5528 5527 5527 5526 5524 5525 5524 5523 5522 5522 5521 5520 5520 5519 5518 5517 5516 5514
5539 5538 5537 5536 5534 5533 5532 5530 5529 5527 5526 5525 5524 5522 5522 5521 5521 5522 5522 5523 5523 5525 5526 5524 5521 5519 5516 5515 5514 5513 5513 5512 5511 5510 5510 5509 5508 5507 5506 5505 5503 5502 5501
5531 5530 5529 5527 5526 5524 5523 5521 5520 5518 5517 5515 5514 5513 5512 5512 5511 5510 5510 5511 5511 5513 5514 5514 5511 5509 5506 5504 5503 5502 5501 5500 5500 5499 5497 5496 5495 5494 5493 5491 5490 5488 5487
5522 5522 5521 5519 5517 5516 5514 5513 5512 5510 5508 5507 5505 5504 5503 5502 5501 5500 5499 5499 5499 5499 5501 5500 5498 5497 5495 5493 5492 5491 5489 5488 5488 5487 5485 5484 5482 5481 5479 5478 5476 5474 5472
5514 5513 5511 5510 5509 5507 5506 5505 5503 5501 5499 5499 5497 5496 5494 5492 5491 5491 5490 5489 5489 5488 5489 5488 5487 5485 5484 5482 5481 5479 5478 5477 5475 5474 5473 5471 5469 5468 5466 5464 5462 5460 5458
5505 5504 5503 5502 5500 5499 5497 5496 5495 5493 5491 5490 5489 5487 5486 5484 5483 5482 5480 5479 5478 5477 5477 5478 5477 5473 5472 5470 5469 5467 5466 5465 5463 5462 5461 5459 5457 5455 5453 5451 5449 5447 5446
5496 5495 5494 5493 5491 5490 5489 5487 5486 5485 5483 5481 5480 5479 5477 5476 5475 5473 5471 5470 5468 5468 5467 5467 5466 5463 5462 5459 5457 5457 5456 5454 5452 5450 5449 5447 5445 5443 5441 5439 5437 5436 5434
5486 5485 5484 5483 5482 5481 5480 5479 5477 5476 5475 5473 5471 5470 5468 5466 5464 5463 5461 5460 5459 5458 5457 5456 5455 5453 5451 5449 5448 5446 5444 5443 5442 5439 5438 5437 5434 5433 5431 5429 5426 5425 5423
5476 5475 5475 5474 5473 5472 5471 5469 5468 5467 5466 5464 5462 5461 5459 5456 5453 5451 5450 5449 5449 5448 5447 5446 5445 5444 5442 5439 5437 5435 5433 5433 5434 5430 5426 5427 5423 5422 5420 5418 5417 5415 5413
5466 5466 5465 5464 5463 5463 5461 5460 5459 5458 5456 5455 5453 5451 5449 5447 5444 5443 5441 5440 5438 5437 5437 5436 5436 5435 5432 5429 5427 5425 5423 5422 5421 5418 5413 5416 5413 5412 5410 5408 5406 5404 5403
5456 5456 5455 5454 5453 5452 5451 5451 5449 5448 5447 5445 5444 5442 5440 5438 5435 5434 5432 5431 5429 5428 5426 5425 5425 5424 5421 5417 5415 5414 5413 5410 5408 5405 5400 5402 5403 5402 5401 5399 5397 5395 5394
5446 5445 5444 5444 5443 5442 5441 5441 5439 5438 5437 5436 5434 5432 5430 5429 5426 5424 5423 5422 5420 5418 5416 5414 5413 5411 5409 5406 5403 5401 5399 5397 5398 5396 5390 5389 5391 5390 5390 5390 5389 5387 5385
5436 5434 5434 5433 5433 5433 5431 5431 5430 5430 5428 5427 5425 5423 5420 5419 5417 5415 5414 5413 5412 5410 5408 5405 5403 5401 5399 5396 5393 5390 5389 5387 5386 5385 5382 5379 5379 5378 5380 5382 5379 5378 5376